FENGYUN 1C DEB, 30880

Orbit data source: Space-Track

FENGYUN 1C DEB, 30880 is space debris in SSO originally from a launch on Mon, 10 May 1999 UTC launched from the Taiyaun Space Center, China (TSC). Fengyun 1C debris stems from the Chinese weather satellite Fengyun-1C, which was intentionally destroyed by a Chinese anti-satellite missile in 2007. This event dramatically increased the amount of space debris, with thousands of trackable fragments posing hazards to satellites and human spaceflight. The Fengyun 1C debris cloud has become a focal point in discussions about space sustainability and the need for international regulations to prevent the creation of new debris.

Loading next visibility...
Identifier
30880, 1999-025AXS
Orbit
SSO
Country
Flag of CNCN / PRC
Related business
Manufacturer
Unknown
Mission
Spacecraft
Bus & Motor
Unknown
Mass
Unknown
Launch date (UTC)
1999-05-10 (27 years ago)
Launch vehicle
Unknown
Launch site
Taiyaun Space Center, China (TSC)
Object type
Payload
Rocket body
Debris
Shape & HBR
Unknown shape, 0.1 m
Radar Cross Section
Small (<0.1 m²)

Expand to show TLE details & history
Last TLE update: 20 hours ago

TLE from 20 hours ago
0 FENGYUN 1C DEB
1 30880U 99025AXS 26264.43970764  .00001394  00000-0  58948-3 0  9998
2 30880  98.7774 342.1636 0020160   6.9650 353.1806 14.27055234  7425
Epoch: 2026-09-21T10:33Z
TLE epoch observation values (Epoch: 2026-09-21T10:33:10.740Z)
Latitude
-0.00006°
Longitude
-176.45066°
Altitude
790.138 km
Speed
7.466 km/s
True Right ascension
22h 48m 39s
True Declination
0° 00' 00"
Sunlit
Object was in full shadow at epoch
Visualization orbit readout
Latitude
Unknown
Longitude
Unknown
Altitude
Unknown
Speed
Unknown
Apparent Right ascension
Unknown
Apparent Declination
Unknown
Sunlit
N/A
Visualization observer readout
Local Sidereal Time
00:05:07
Azimuth
Unknown
Elevation
Unknown
Doppler factor
Unknown
Orbital elements
Apogee altitude
813.212 km
Perigee altitude
784.275 km
Semi-major axis
7,176.88 km
Eccentricity
0.00202
Inclination
98.7774°
RAAN
342.1636°
Arg. of periapsis
6.965°
True anomaly
353.1531°
Mean anomaly
353.1806°
Eccentric anomaly
353.16686°
Mean motion
3.56976 °/min
Orbital period
100.85 mins
BSTAR
0.00058948
Loading maneuver chart data...
Computing Atmospheric mass density...

Documentation

Showing up to 5 results
|